Time,TemperatureF,DewpointF,PressureIn,WindDirection,WindDirectionDegrees,WindSpeedMPH,WindSpeedGustMPH,Humidity,HourlyPrecipIn,Conditions,Clouds,dailyrainin,SoftwareType,DateUTC
2013-06-04 00:03:00,54.0,43.0,-100.00,NW,325,3.0,6.0,68,0.00,,,-99.99,,2013-06-04 04:03:00,
2013-06-04 00:13:00,53.0,43.0,-100.00,West,280,1.0,7.0,68,0.00,,,-99.99,,2013-06-04 04:13:00,
2013-06-04 00:23:00,54.0,44.0,-100.00,NW,310,1.0,4.0,68,0.00,,,-99.99,,2013-06-04 04:23:00,
2013-06-04 00:33:00,54.0,43.0,-100.00,WNW,285,1.0,6.0,68,0.00,,,-99.99,,2013-06-04 04:33:00,
2013-06-04 00:42:00,53.0,44.0,-100.00,WNW,295,2.0,6.0,69,0.00,,,-99.99,,2013-06-04 04:42:00,
2013-06-04 00:53:00,53.0,43.0,-100.00,NW,320,3.0,9.0,69,0.00,,,-99.99,,2013-06-04 04:53:00,
2013-06-04 01:02:00,53.0,44.0,-100.00,NNW,330,3.0,7.0,71,0.00,,,-99.99,,2013-06-04 05:02:00,
2013-06-04 01:12:00,52.0,43.0,-100.00,West,265,2.0,7.0,71,0.00,,,-99.99,,2013-06-04 05:12:00,
2013-06-04 01:22:00,52.0,43.0,-100.00,West,260,1.0,5.0,72,0.00,,,-99.99,,2013-06-04 05:22:00,
2013-06-04 01:32:00,51.0,43.0,-100.00,South,185,0.0,2.0,73,0.00,,,-99.99,,2013-06-04 05:32:00,
2013-06-04 01:42:00,50.0,44.0,-100.00,South,175,1.0,3.0,78,0.00,,,-99.99,,2013-06-04 05:42:00,
2013-06-04 01:52:00,49.0,44.0,-100.00,North,0,0.0,3.0,80,0.00,,,-99.99,,2013-06-04 05:52:00,
2013-06-04 02:02:00,50.0,44.0,-100.00,South,185,1.0,4.0,79,0.00,,,-99.99,,2013-06-04 06:02:00,
2013-06-04 02:12:00,50.0,42.0,-100.00,NNW,345,2.0,4.0,75,0.00,,,-99.99,,2013-06-04 06:12:00,
2013-06-04 02:22:00,50.0,41.0,-100.00,NW,310,2.0,8.0,69,0.00,,,-99.99,,2013-06-04 06:22:00,
2013-06-04 02:32:00,51.0,40.0,-100.00,WNW,285,1.0,5.0,66,0.00,,,-99.99,,2013-06-04 06:32:00,
2013-06-04 02:42:00,50.0,40.0,-100.00,West,265,0.0,2.0,68,0.00,,,-99.99,,2013-06-04 06:42:00,
2013-06-04 02:52:00,50.0,41.0,-100.00,SW,235,0.0,1.0,71,0.00,,,-99.99,,2013-06-04 06:52:00,
2013-06-04 03:02:00,49.0,41.0,-100.00,NW,305,0.0,1.0,74,0.00,,,-99.99,,2013-06-04 07:02:00,
2013-06-04 03:12:00,48.0,41.0,-100.00,WNW,290,0.0,1.0,76,0.00,,,-99.99,,2013-06-04 07:12:00,
2013-06-04 03:22:00,47.0,42.0,-100.00,WSW,240,0.0,1.0,80,0.00,,,-99.99,,2013-06-04 07:22:00,
2013-06-04 03:32:00,46.0,41.0,-100.00,WSW,250,0.0,1.0,82,0.00,,,-99.99,,2013-06-04 07:32:00,
2013-06-04 03:42:00,46.0,41.0,-100.00,SW,225,1.0,1.0,83,0.00,,,-99.99,,2013-06-04 07:42:00,
2013-06-04 03:52:00,46.0,41.0,-100.00,NW,305,1.0,1.0,84,0.00,,,-99.99,,2013-06-04 07:52:00,
2013-06-04 04:02:00,45.0,41.0,-100.00,SW,225,1.0,1.0,86,0.00,,,-99.99,,2013-06-04 08:02:00,
2013-06-04 04:12:00,45.0,41.0,-100.00,West,260,0.0,2.0,85,0.00,,,-99.99,,2013-06-04 08:12:00,
2013-06-04 04:22:00,44.0,41.0,-100.00,NNW,335,1.0,1.0,86,0.00,,,-99.99,,2013-06-04 08:22:00,
2013-06-04 04:32:00,44.0,41.0,-100.00,East,100,0.0,1.0,87,0.00,,,-99.99,,2013-06-04 08:32:00,
2013-06-04 04:42:00,44.0,41.0,-100.00,West,270,1.0,1.0,88,0.00,,,-99.99,,2013-06-04 08:42:00,
2013-06-04 04:52:00,44.0,41.0,-100.00,South,190,1.0,1.0,88,0.00,,,-99.99,,2013-06-04 08:52:00,
2013-06-04 05:02:00,44.0,41.0,-100.00,South,190,0.0,1.0,87,0.00,,,-99.99,,2013-06-04 09:02:00,
2013-06-04 05:12:00,44.0,41.0,-100.00,WNW,290,0.0,1.0,88,0.00,,,-99.99,,2013-06-04 09:12:00,
2013-06-04 05:22:00,44.0,41.0,-100.00,WSW,240,1.0,1.0,88,0.00,,,-99.99,,2013-06-04 09:22:00,
2013-06-04 05:33:00,44.0,41.0,-100.00,SSW,210,1.0,1.0,88,0.00,,,-99.99,,2013-06-04 09:33:00,
2013-06-04 05:43:00,44.0,41.0,-100.00,WSW,245,0.0,1.0,88,0.00,,,-99.99,,2013-06-04 09:43:00,
2013-06-04 05:53:00,44.0,41.0,-100.00,NW,315,0.0,1.0,87,0.00,,,-99.99,,2013-06-04 09:53:00,
2013-06-04 06:03:00,46.0,42.0,-100.00,West,270,0.0,2.0,84,0.00,,,-99.99,,2013-06-04 10:03:00,
2013-06-04 06:12:00,46.0,42.0,-100.00,ENE,70,1.0,1.0,83,0.00,,,-99.99,,2013-06-04 10:12:00,
2013-06-04 06:23:00,46.0,42.0,-100.00,North,10,0.0,3.0,85,0.00,,,-99.99,,2013-06-04 10:23:00,
2013-06-04 06:33:00,47.0,42.0,-100.00,NNW,345,1.0,2.0,84,0.00,,,-99.99,,2013-06-04 10:33:00,
2013-06-04 06:42:00,47.0,42.0,-100.00,West,260,1.0,3.0,82,0.00,,,-99.99,,2013-06-04 10:42:00,
2013-06-04 06:52:00,48.0,43.0,-100.00,South,175,0.0,3.0,82,0.00,,,-99.99,,2013-06-04 10:52:00,
2013-06-04 07:02:00,48.0,42.0,-100.00,NW,305,1.0,2.0,79,0.00,,,-99.99,,2013-06-04 11:02:00,
2013-06-04 07:12:00,49.0,42.0,-100.00,ENE,75,1.0,2.0,76,0.00,,,-99.99,,2013-06-04 11:12:00,
2013-06-04 07:22:00,49.0,42.0,-100.00,NNW,335,1.0,2.0,79,0.00,,,-99.99,,2013-06-04 11:22:00,
2013-06-04 07:32:00,49.0,43.0,-100.00,West,270,1.0,2.0,79,0.00,,,-99.99,,2013-06-04 11:32:00,
2013-06-04 07:42:00,49.0,41.0,-100.00,NW,310,1.0,6.0,72,0.00,,,-99.99,,2013-06-04 11:42:00,
2013-06-04 07:52:00,50.0,41.0,-100.00,NW,310,1.0,5.0,72,0.00,,,-99.99,,2013-06-04 11:52:00,
2013-06-04 08:02:00,50.0,40.0,-100.00,WNW,285,4.0,7.0,67,0.00,,,-99.99,,2013-06-04 12:02:00,
2013-06-04 08:12:00,51.0,39.0,-100.00,NW,310,7.0,17.0,63,0.00,,,-99.99,,2013-06-04 12:12:00,
2013-06-04 08:22:00,51.0,38.0,-100.00,NW,320,9.0,16.0,61,0.00,,,-99.99,,2013-06-04 12:22:00,
2013-06-04 08:32:00,51.0,38.0,-100.00,NNW,340,11.0,19.0,61,0.00,,,-99.99,,2013-06-04 12:32:00,
2013-06-04 08:42:00,51.0,38.0,-100.00,NNW,340,9.0,24.0,60,0.00,,,-99.99,,2013-06-04 12:42:00,
2013-06-04 08:52:00,51.0,39.0,-100.00,NW,305,4.0,18.0,62,0.00,,,-99.99,,2013-06-04 12:52:00,
2013-06-04 09:03:00,51.0,38.0,-100.00,NW,325,7.0,22.0,62,0.00,,,-99.99,,2013-06-04 13:03:00,
2013-06-04 09:12:00,51.0,38.0,-100.00,NW,325,6.0,14.0,61,0.00,,,-99.99,,2013-06-04 13:12:00,
2013-06-04 09:22:00,51.0,38.0,-100.00,NW,320,7.0,12.0,62,0.00,,,-99.99,,2013-06-04 13:22:00,
2013-06-04 09:32:00,50.0,38.0,-100.00,NNW,345,7.0,19.0,62,0.00,,,-99.99,,2013-06-04 13:32:00,
2013-06-04 09:42:00,50.0,38.0,-100.00,NNW,335,6.0,12.0,64,0.00,,,-99.99,,2013-06-04 13:42:00,
2013-06-04 09:52:00,50.0,38.0,-100.00,NW,305,6.0,14.0,64,0.00,,,-99.99,,2013-06-04 13:52:00,
2013-06-04 10:02:00,50.0,38.0,-100.00,NW,315,9.0,16.0,63,0.00,,,-99.99,,2013-06-04 14:02:00,
2013-06-04 10:12:00,50.0,38.0,-100.00,NNW,330,5.0,13.0,63,0.00,,,-99.99,,2013-06-04 14:12:00,
2013-06-04 10:22:00,50.0,38.0,-100.00,NW,325,7.0,15.0,63,0.00,,,-99.99,,2013-06-04 14:22:00,
2013-06-04 10:32:00,51.0,38.0,-100.00,NNW,330,8.0,14.0,62,0.00,,,-99.99,,2013-06-04 14:32:00,
2013-06-04 10:42:00,51.0,38.0,-100.00,NNW,330,9.0,16.0,62,0.00,,,-99.99,,2013-06-04 14:42:00,
2013-06-04 10:52:00,51.0,39.0,-100.00,NNW,335,6.0,13.0,64,0.00,,,-99.99,,2013-06-04 14:52:00,
2013-06-04 11:02:00,51.0,38.0,-100.00,NNW,335,7.0,15.0,62,0.00,,,-99.99,,2013-06-04 15:02:00,
2013-06-04 11:12:00,51.0,39.0,-100.00,NNW,335,6.0,16.0,64,0.00,,,-99.99,,2013-06-04 15:12:00,
2013-06-04 11:22:00,51.0,39.0,-100.00,NW,315,6.0,13.0,62,0.00,,,-99.99,,2013-06-04 15:22:00,
2013-06-04 11:33:00,51.0,39.0,-100.00,NW,310,4.0,12.0,63,0.00,,,-99.99,,2013-06-04 15:33:00,
2013-06-04 11:42:00,51.0,38.0,-100.00,NW,320,9.0,17.0,63,0.00,,,-99.99,,2013-06-04 15:42:00,
2013-06-04 11:53:00,50.0,38.0,-100.00,NNW,335,7.0,15.0,63,0.00,,,-99.99,,2013-06-04 15:53:00,
2013-06-04 12:03:00,51.0,39.0,-100.00,NNW,335,4.0,9.0,65,0.00,,,-99.99,,2013-06-04 16:03:00,
2013-06-04 12:13:00,51.0,40.0,-100.00,NNW,335,6.0,13.0,65,0.00,,,-99.99,,2013-06-04 16:13:00,
2013-06-04 12:23:00,51.0,39.0,-100.00,NNW,330,6.0,11.0,65,0.00,,,-99.99,,2013-06-04 16:23:00,
2013-06-04 12:33:00,51.0,40.0,-100.00,NW,325,3.0,7.0,66,0.00,,,-99.99,,2013-06-04 16:33:00,
2013-06-04 12:42:00,51.0,40.0,-100.00,NW,325,4.0,11.0,65,0.00,,,-99.99,,2013-06-04 16:42:00,
2013-06-04 12:52:00,51.0,41.0,-100.00,WNW,300,3.0,9.0,67,0.00,,,-99.99,,2013-06-04 16:52:00,
2013-06-04 13:03:00,51.0,40.0,-100.00,NW,320,4.0,13.0,65,0.00,,,-99.99,,2013-06-04 17:03:00,
2013-06-04 13:12:00,52.0,40.0,-100.00,NNW,340,4.0,14.0,62,0.00,,,-99.99,,2013-06-04 17:12:00,
2013-06-04 13:23:00,52.0,39.0,-100.00,NNW,340,12.0,17.0,61,0.00,,,-99.99,,2013-06-04 17:23:00,
2013-06-04 13:33:00,52.0,38.0,-100.00,NNW,345,12.0,22.0,58,0.00,,,-99.99,,2013-06-04 17:33:00,
2013-06-04 13:42:00,53.0,39.0,-100.00,North,0,4.0,15.0,58,0.00,,,-99.99,,2013-06-04 17:42:00,
2013-06-04 13:52:00,53.0,39.0,-100.00,WSW,255,1.0,10.0,57,0.00,,,-99.99,,2013-06-04 17:52:00,
2013-06-04 14:02:00,54.0,40.0,-100.00,NNW,330,4.0,13.0,58,0.00,,,-99.99,,2013-06-04 18:02:00,
2013-06-04 14:12:00,55.0,40.0,-100.00,North,350,2.0,7.0,57,0.00,,,-99.99,,2013-06-04 18:12:00,
2013-06-04 14:22:00,56.0,40.0,-100.00,NNE,25,1.0,5.0,54,0.00,,,-99.99,,2013-06-04 18:22:00,
2013-06-04 14:32:00,55.0,40.0,-100.00,West,280,2.0,10.0,56,0.00,,,-99.99,,2013-06-04 18:32:00,
2013-06-04 14:42:00,55.0,39.0,-100.00,NNW,335,7.0,12.0,55,0.00,,,-99.99,,2013-06-04 18:42:00,
2013-06-04 14:52:00,56.0,40.0,-100.00,WNW,300,3.0,12.0,53,0.00,,,-99.99,,2013-06-04 18:52:00,
2013-06-04 15:02:00,56.0,38.0,-100.00,NW,325,7.0,16.0,50,0.00,,,-99.99,,2013-06-04 19:02:00,
2013-06-04 15:12:00,58.0,41.0,-100.00,ENE,65,2.0,11.0,52,0.00,,,-99.99,,2013-06-04 19:12:00,
2013-06-04 15:22:00,57.0,38.0,-100.00,NNW,330,4.0,11.0,49,0.00,,,-99.99,,2013-06-04 19:22:00,
2013-06-04 15:33:00,57.0,38.0,-100.00,NW,325,7.0,14.0,48,0.00,,,-99.99,,2013-06-04 19:33:00,
2013-06-04 15:42:00,56.0,37.0,-100.00,North,355,6.0,13.0,47,0.00,,,-99.99,,2013-06-04 19:42:00,
2013-06-04 15:52:00,58.0,38.0,-100.00,North,0,4.0,12.0,47,0.00,,,-99.99,,2013-06-04 19:52:00,
2013-06-04 16:03:00,58.0,38.0,-100.00,NNW,345,5.0,11.0,47,0.00,,,-99.99,,2013-06-04 20:03:00,
2013-06-04 16:12:00,59.0,38.0,-100.00,NNW,345,9.0,14.0,45,0.00,,,-99.99,,2013-06-04 20:12:00,
2013-06-04 16:22:00,59.0,37.0,-100.00,NW,325,12.0,22.0,43,0.00,,,-99.99,,2013-06-04 20:22:00,
2013-06-04 16:32:00,59.0,38.0,-100.00,NNW,335,7.0,15.0,45,0.00,,,-99.99,,2013-06-04 20:32:00,
2013-06-04 16:42:00,60.0,38.0,-100.00,NNW,340,7.0,14.0,45,0.00,,,-99.99,,2013-06-04 20:42:00,
2013-06-04 16:52:00,59.0,37.0,-100.00,NNW,340,9.0,17.0,44,0.00,,,-99.99,,2013-06-04 20:52:00,
2013-06-04 17:02:00,59.0,38.0,-100.00,NNW,340,13.0,19.0,44,0.00,,,-99.99,,2013-06-04 21:02:00,
2013-06-04 17:12:00,59.0,39.0,-100.00,NW,315,6.0,15.0,46,0.00,,,-99.99,,2013-06-04 21:12:00,
2013-06-04 17:22:00,60.0,39.0,-100.00,NNW,335,6.0,17.0,45,0.00,,,-99.99,,2013-06-04 21:22:00,
2013-06-04 17:33:00,60.0,39.0,-100.00,NNW,340,9.0,17.0,46,0.00,,,-99.99,,2013-06-04 21:33:00,
2013-06-04 17:42:00,59.0,39.0,-100.00,NNW,345,9.0,19.0,46,0.00,,,-99.99,,2013-06-04 21:42:00,
2013-06-04 17:53:00,59.0,40.0,-100.00,NW,310,6.0,13.0,47,0.00,,,-99.99,,2013-06-04 21:53:00,
2013-06-04 18:02:00,59.0,38.0,-100.00,NW,315,9.0,15.0,45,0.00,,,-99.99,,2013-06-04 22:02:00,
2013-06-04 18:13:00,59.0,38.0,-100.00,NNW,330,9.0,18.0,46,0.00,,,-99.99,,2013-06-04 22:13:00,
2013-06-04 18:22:00,58.0,38.0,-100.00,NNW,335,8.0,13.0,48,0.00,,,-99.99,,2013-06-04 22:22:00,
2013-06-04 18:32:00,58.0,38.0,-100.00,NW,320,6.0,13.0,48,0.00,,,-99.99,,2013-06-04 22:32:00,
2013-06-04 18:42:00,58.0,37.0,-100.00,NNW,335,9.0,17.0,46,0.00,,,-99.99,,2013-06-04 22:42:00,
2013-06-04 18:52:00,58.0,39.0,-100.00,NW,325,6.0,16.0,49,0.00,,,-99.99,,2013-06-04 22:52:00,
2013-06-04 19:02:00,58.0,39.0,-100.00,NW,325,9.0,18.0,48,0.00,,,-99.99,,2013-06-04 23:02:00,
2013-06-04 19:12:00,58.0,39.0,-100.00,NNW,330,7.0,14.0,50,0.00,,,-99.99,,2013-06-04 23:12:00,
2013-06-04 19:22:00,58.0,39.0,-100.00,NW,325,8.0,16.0,49,0.00,,,-99.99,,2013-06-04 23:22:00,
2013-06-04 19:32:00,58.0,39.0,-100.00,NW,325,11.0,19.0,50,0.00,,,-99.99,,2013-06-04 23:32:00,
2013-06-04 19:42:00,57.0,40.0,-100.00,NNW,335,4.0,16.0,52,0.00,,,-99.99,,2013-06-04 23:42:00,
2013-06-04 19:52:00,57.0,40.0,-100.00,NNW,340,6.0,10.0,52,0.00,,,-99.99,,2013-06-04 23:52:00,
2013-06-04 20:02:00,57.0,40.0,-100.00,NNW,335,6.0,10.0,54,0.00,,,-99.99,,2013-06-05 00:02:00,
2013-06-04 20:12:00,56.0,41.0,-100.00,NNW,335,3.0,6.0,56,0.00,,,-99.99,,2013-06-05 00:12:00,
2013-06-04 20:22:00,55.0,41.0,-100.00,North,350,4.0,7.0,57,0.00,,,-99.99,,2013-06-05 00:22:00,
2013-06-04 20:33:00,55.0,41.0,-100.00,NW,320,1.0,5.0,58,0.00,,,-99.99,,2013-06-05 00:33:00,
2013-06-04 20:42:00,55.0,41.0,-100.00,North,0,2.0,6.0,59,0.00,,,-99.99,,2013-06-05 00:42:00,
2013-06-04 20:52:00,54.0,42.0,-100.00,NW,320,1.0,6.0,61,0.00,,,-99.99,,2013-06-05 00:52:00,
2013-06-04 21:02:00,53.0,42.0,-100.00,ENE,75,1.0,2.0,65,0.00,,,-99.99,,2013-06-05 01:02:00,
2013-06-04 21:12:00,53.0,42.0,-100.00,North,10,1.0,4.0,65,0.00,,,-99.99,,2013-06-05 01:12:00,
2013-06-04 21:22:00,52.0,43.0,-100.00,SW,225,1.0,2.0,70,0.00,,,-99.99,,2013-06-05 01:22:00,
2013-06-04 21:32:00,51.0,43.0,-100.00,SW,230,1.0,1.0,73,0.00,,,-99.99,,2013-06-05 01:32:00,
2013-06-04 21:42:00,49.0,43.0,-100.00,SW,230,1.0,2.0,78,0.00,,,-99.99,,2013-06-05 01:42:00,
2013-06-04 21:52:00,49.0,43.0,-100.00,West,275,0.0,1.0,79,0.00,,,-99.99,,2013-06-05 01:52:00,
2013-06-04 22:02:00,48.0,43.0,-100.00,SW,220,1.0,1.0,81,0.00,,,-99.99,,2013-06-05 02:02:00,
2013-06-04 22:12:00,48.0,43.0,-100.00,SW,225,1.0,1.0,82,0.00,,,-99.99,,2013-06-05 02:12:00,
2013-06-04 22:22:00,47.0,43.0,-100.00,SW,225,1.0,1.0,83,0.00,,,-99.99,,2013-06-05 02:22:00,
2013-06-04 22:32:00,47.0,43.0,-100.00,SW,225,0.0,1.0,83,0.00,,,-99.99,,2013-06-05 02:32:00,
2013-06-04 22:42:00,47.0,43.0,-100.00,WSW,240,0.0,1.0,84,0.00,,,-99.99,,2013-06-05 02:42:00,
2013-06-04 22:52:00,47.0,43.0,-100.00,South,185,1.0,1.0,85,0.00,,,-99.99,,2013-06-05 02:52:00,
2013-06-04 23:02:00,47.0,43.0,-100.00,West,270,0.0,1.0,86,0.00,,,-99.99,,2013-06-05 03:02:00,
2013-06-04 23:12:00,47.0,43.0,-100.00,West,275,0.0,1.0,86,0.00,,,-99.99,,2013-06-05 03:12:00,
2013-06-04 23:22:00,47.0,43.0,-100.00,WSW,255,0.0,1.0,86,0.00,,,-99.99,,2013-06-05 03:22:00,
2013-06-04 23:33:00,47.0,43.0,-100.00,West,260,0.0,3.0,87,0.00,,,-99.99,,2013-06-05 03:33:00,
2013-06-04 23:43:00,47.0,44.0,-100.00,WSW,250,1.0,1.0,88,0.00,,,-99.99,,2013-06-05 03:43:00,
2013-06-04 23:53:00,46.0,43.0,-100.00,West,275,1.0,2.0,88,0.00,,,-99.99,,2013-06-05 03:53:00,